Location: ??????????
(42.1626°N, 44.1160°E)
Time: 14:50:07
(UTC+00:00)

Cosmos 1862 Rocket - Pass Details

Date: 03 March 2021
Orbit: 603 x 635 km, 82.5° (Epoch: 21 April)

Event Time Altitude Azimuth Distance (km) Brightness Sun altitude
Rises 15:46:03 0° 352° (N) 2,942 7.1 -10.1°
Reaches altitude 10° 15:48:19 10° 354° (N) 2,029 6.3 -10.5°
Maximum altitude 15:52:49 82° 81° (E) 645 3.5 -11.3°
Drops below altitude 10° 15:57:17 10° 170° (S) 2,005 6.1 -12.2°
Sets 15:59:30 0° 171° (S) 2,904 6.9 -12.6°
